[[{"header":{"parameterUnit":"m.s-1","parameterCategory":1,"la1":30.2991,"la2":30.254,"lo1":-89.0895,"lo2":-89.0444,"dy":0.0017,"dx":0.0017,"nx":28,"ny":28,"refTime":"2026-01-30T09:00:00:Z","depth":0,"parameterNumber":2,"parameterNumberName":"U-component_of_WINDS"},"data":[0,0,0,0,0,0,0,0,0,0,0,0,0,0,0,0,0,0,0,0,0,0,0,0,0,0,0,0,0,0,0,0,0,0,0,0,0,0,0,0,0,0,0,0,0,0,0,0,0,0,0,0,0,0,0,0,0,0,4.3372,4.3373,0,4.3439,4.344,4.3441,4.3418,4.3416,4.3415,4.3413,4.348,4.3483,4.3487,0,0,0,0,0,0,0,0,0,0,0,0,0,4.3223,4.3226,4.3372,4.3373,4.3374,4.3439,4.344,4.3441,4.3418,4.3416,4.3414,4.3413,4.3479,4.3483,4.3487,0,0,0,0,0,0,0,0,0,0,0,0,0,4.3289,4.3227,4.3372,4.337,4.3371,4.3439,4.344,4.3441,4.3418,4.3416,4.3414,4.3412,4.3478,4.3483,4.3487,4.3561,0,0,4.3502,4.3504,0,0,0,0,0,0,0,0,4.3285,4.3294,4.337,4.337,4.3371,4.3418,4.3412,4.3481,4.3419,4.34,4.3413,4.3411,4.3461,4.3467,4.3485,4.3564,4.3567,4.3502,4.3505,4.3507,4.3509,0,0,0,0,0,0,0,4.328,4.3291,4.3399,4.3371,4.3372,4.3366,4.3373,4.3425,4.3442,4.3402,4.34,4.3409,4.3461,4.348,4.3486,4.3568,4.3502,4.3506,4.3509,4.3511,4.3713,4.3716,0,0,0,0,0,0,4.3276,4.3287,4.3396,4.3401,4.3322,4.337,4.3378,4.3405,4.3442,4.3445,4.341,4.3407,4.3473,4.3481,4.3488,4.3578,4.3507,4.3512,4.3514,4.3711,4.3714,4.3717,0,0,0,0,0,0,4.3272,4.3286,4.3394,4.3344,4.3357,4.3375,4.3406,4.3408,4.3427,4.3448,4.3451,4.3427,4.3472,4.3482,4.3544,4.358,4.3514,4.3518,4.3708,4.3712,4.3715,4.3757,0,0,0,0,0,0,4.3268,4.3285,4.3313,4.3345,4.336,4.3448,4.3408,4.3411,4.3435,4.3432,4.3464,4.3468,4.3471,4.3537,4.3548,4.3585,4.3522,4.3705,4.371,4.3714,4.3753,4.3762,4.377,0,0,0,0,0,4.3263,4.3321,4.3314,4.3327,4.3395,4.345,4.3459,4.3462,4.3438,4.3467,4.3481,4.3467,4.3575,4.3543,4.3556,4.3595,4.3702,4.3708,4.3714,4.3749,4.376,4.377,0,0,0,0,0,0,4.3291,4.3325,4.3318,4.3388,4.3417,4.3446,4.3482,4.3474,4.3509,4.3504,4.3506,4.3514,4.3578,4.3593,4.3558,4.3669,4.3635,4.3643,4.3657,4.3668,4.3677,4.3671,4.3526,0,0,0,0,0,4.3306,4.3348,4.3375,4.3434,4.3449,4.3463,4.3487,4.3488,4.3517,4.3529,4.3547,4.3576,4.3617,4.3643,4.3682,4.3755,4.3763,4.3789,4.3797,4.3804,4.3811,4.3853,4.3865,4.3735,4.3735,4.3735,0,0,4.3335,4.3359,4.3385,4.344,4.3463,4.3506,4.3473,4.352,4.3553,4.3536,4.3596,4.3611,4.3643,4.3712,4.3743,4.3726,4.3849,4.3812,4.3817,4.382,4.386,4.3872,4.3883,4.3739,4.3739,4.3738,0,0,4.3412,4.3435,4.3487,4.3511,4.3546,4.3555,4.3568,4.36,4.361,4.367,4.3659,4.3698,4.3767,4.3791,4.3813,4.3902,4.3891,4.3915,4.396,4.4,4.401,4.4019,4.4052,4.4064,4.3922,4.3922,4.3922,0,4.3445,4.3511,4.3515,4.3564,4.3589,4.3577,4.363,4.3653,4.3698,4.3716,4.3697,4.3785,4.3806,4.3881,4.3903,4.3921,4.3936,4.391,4.4009,4.4018,4.4026,4.4057,4.407,4.3925,4.3924,4.3924,4.3924,0,4.355,4.3596,4.3634,4.368,4.3709,4.376,4.3772,4.3801,4.3799,4.3811,4.3874,4.3899,4.3944,4.3962,4.396,4.4037,4.4026,4.4008,4.3973,4.4041,4.4071,4.4083,4.3929,4.3928,4.3927,4.3926,0,0,4.3644,4.3693,4.3707,4.3729,4.3768,4.3803,4.3854,4.3899,4.3924,4.3957,4.4,4.406,4.4045,4.4069,4.4071,4.4106,4.4177,4.4084,4.4085,4.4101,4.4265,4.4278,4.4291,4.417,4.4172,4.4174,4.4262,0,4.3724,4.3814,4.3821,4.3902,4.3946,4.3936,4.3981,4.401,4.4023,4.4062,4.4076,4.4119,4.4095,4.411,4.4145,4.4161,4.421,4.4155,4.421,4.4212,4.4202,4.4307,4.432,4.4402,4.4273,4.4275,4.4277,0,4.3829,4.3867,4.3953,4.3988,4.4007,4.4047,4.4089,4.4126,4.4159,4.4166,4.4195,4.4192,4.4245,4.421,4.4283,4.4246,4.4269,4.4281,4.4284,4.4289,4.4248,4.4314,4.4427,4.444,4.4295,4.4293,4.4292,0,4.389,4.3962,4.4024,4.4042,4.4084,4.4113,4.4132,4.4163,4.419,4.4227,4.4245,4.4287,4.4311,4.4344,4.4353,4.4326,4.4427,4.4391,4.4434,4.4434,4.4455,4.4453,4.4573,4.447,4.447,4.447,4.447,0,4.3979,4.4033,4.4052,4.409,4.4149,4.4157,4.4216,4.4233,4.4261,4.4302,4.4297,4.4336,4.4345,4.4386,4.4393,4.4454,4.4464,4.4471,4.4473,4.4472,4.4471,4.4486,4.4481,4.4473,4.4473,4.4472,4.4471,0,4.4057,4.4072,4.4138,4.4174,4.4184,4.4227,4.4257,4.4294,4.4307,4.4359,4.4372,4.4393,4.4441,4.4453,4.451,4.4515,4.4586,4.4582,4.4575,4.4575,4.4617,4.4613,4.4751,4.477,4.4655,4.4656,4.4657,0,4.4112,4.4153,4.4194,4.4222,4.4242,4.4287,4.4315,4.4324,4.4354,4.4397,4.4428,4.4476,4.4514,4.4591,4.4611,4.4655,4.4652,4.4698,4.4659,4.4657,4.4653,4.4651,4.4655,4.4705,4.4706,4.4707,4.4708,0,4.421,4.4216,4.4257,4.4302,4.4336,4.4371,4.4405,4.4428,4.4442,4.4476,4.4526,4.4556,4.4615,4.4663,4.4708,4.4727,4.472,4.4721,4.4733,4.4732,4.4726,4.4731,4.4596,4.4717,4.4716,4.4715,4.4715,4.4714,4.4278,4.4315,4.435,4.4396,4.4423,4.4456,4.4492,4.4511,4.4553,4.4603,4.4606,4.466,4.4694,4.4754,4.4776,4.4819,4.4805,4.4823,4.4827,4.4832,4.4836,4.472,4.4827,4.4827,4.4827,4.4827,4.4826,0,4.4375,4.4398,4.4441,4.4489,4.4527,4.4519,4.4556,4.4588,4.4636,4.4669,4.4707,4.4765,4.4812,4.4837,4.4884,4.4913,4.4911,4.4925,4.4923,4.4927,4.4845,4.483,4.4926,4.4926,4.4926,4.4926,4.4926,4.4926,4.443,4.4492,4.4503,4.4579,4.4601,4.4655,4.4677,4.4708,4.4734,4.4799,4.4839,4.4855,4.4885,4.4935,4.4977,4.4984,4.5001,4.5017,4.5021,4.4943,4.4933,4.4923,4.4909,4.502,4.502,4.51,4.5101,4.5101]},{"header":{"parameterUnit":"m.s-1","parameterCategory":1,"la1":30.2991,"la2":30.254,"lo1":-89.0895,"lo2":-89.0444,"dy":0.0017,"dx":0.0017,"nx":28,"ny":28,"refTime":"2026-01-30T09:00:00:Z","depth":0,"parameterNumber":3,"parameterNumberName":"V-component_of_WINDS"},"data":[0,0,0,0,0,0,0,0,0,0,0,0,0,0,0,0,0,0,0,0,0,0,0,0,0,0,0,0,0,0,0,0,0,0,0,0,0,0,0,0,0,0,0,0,0,0,0,0,0,0,0,0,0,0,0,0,0,0,-9.5174,-9.5176,0,-9.5336,-9.5337,-9.5339,-9.5292,-9.5289,-9.5286,-9.5283,-9.5441,-9.5448,-9.5456,0,0,0,0,0,0,0,0,0,0,0,0,0,-9.4821,-9.4827,-9.5174,-9.5176,-9.5178,-9.5335,-9.5337,-9.534,-9.5293,-9.5289,-9.5285,-9.5281,-9.5439,-9.5448,-9.5456,0,0,0,0,0,0,0,0,0,0,0,0,0,-9.4977,-9.483,-9.5174,-9.5174,-9.5175,-9.5335,-9.5338,-9.534,-9.5294,-9.5289,-9.5284,-9.5279,-9.5436,-9.5447,-9.5457,-9.5624,0,0,-9.5491,-9.5496,0,0,0,0,0,0,0,0,-9.4968,-9.499,-9.5172,-9.5174,-9.5176,-9.5289,-9.5271,-9.5435,-9.5295,-9.5249,-9.5282,-9.5277,-9.5394,-9.5408,-9.5449,-9.5632,-9.5639,-9.5492,-9.5499,-9.5503,-9.5506,0,0,0,0,0,0,0,-9.4958,-9.4983,-9.5238,-9.5174,-9.5177,-9.5164,-9.5181,-9.5302,-9.5347,-9.5252,-9.5249,-9.5269,-9.5394,-9.5439,-9.5453,-9.5641,-9.5492,-9.5501,-9.5508,-9.5512,-9.5971,-9.5976,0,0,0,0,0,0,-9.4946,-9.4974,-9.5232,-9.5242,-9.5058,-9.5175,-9.5194,-9.5258,-9.5346,-9.5354,-9.5273,-9.5267,-9.5422,-9.544,-9.5458,-9.5661,-9.5503,-9.5514,-9.552,-9.5965,-9.5972,-9.5978,0,0,0,0,0,0,-9.4938,-9.4969,-9.5226,-9.5108,-9.5139,-9.5186,-9.5258,-9.5263,-9.5308,-9.5362,-9.5369,-9.5311,-9.5419,-9.5443,-9.5584,-9.5665,-9.5518,-9.5528,-9.5959,-9.5967,-9.5975,-9.6067,0,0,0,0,0,0,-9.4929,-9.4967,-9.5032,-9.511,-9.5146,-9.5351,-9.5263,-9.527,-9.5328,-9.532,-9.5399,-9.5407,-9.5417,-9.5568,-9.5595,-9.5678,-9.5537,-9.5951,-9.5962,-9.5972,-9.6057,-9.6077,-9.6095,0,0,0,0,0,-9.4916,-9.5049,-9.5035,-9.5067,-9.5228,-9.5356,-9.5377,-9.5388,-9.5334,-9.5399,-9.5435,-9.5404,-9.5653,-9.5583,-9.5613,-9.57,-9.5946,-9.5959,-9.5972,-9.6048,-9.6073,-9.6094,0,0,0,0,0,0,-9.4976,-9.5059,-9.5045,-9.5207,-9.5276,-9.5348,-9.543,-9.5413,-9.5496,-9.5485,-9.5494,-9.5512,-9.5658,-9.5693,-9.5614,-9.5868,-9.5791,-9.5811,-9.5839,-9.5864,-9.5882,-9.587,-9.5546,0,0,0,0,0,-9.5009,-9.5108,-9.5174,-9.5311,-9.5346,-9.5383,-9.5439,-9.5442,-9.5512,-9.5539,-9.5585,-9.5652,-9.5745,-9.5806,-9.5895,-9.6062,-9.6078,-9.6137,-9.6156,-9.6171,-9.6187,-9.628,-9.6307,-9.6019,-9.6019,-9.6019,0,0,-9.5077,-9.5134,-9.5195,-9.5325,-9.5378,-9.5479,-9.5407,-9.5516,-9.5591,-9.5555,-9.5693,-9.5729,-9.5804,-9.596,-9.6031,-9.5994,-9.6271,-9.6187,-9.6199,-9.6207,-9.6296,-9.6323,-9.6347,-9.6028,-9.6026,-9.6025,0,0,-9.5252,-9.5305,-9.5426,-9.5482,-9.5565,-9.5589,-9.5618,-9.5694,-9.5718,-9.5857,-9.5833,-9.5921,-9.6081,-9.6137,-9.6186,-9.6386,-9.6361,-9.6414,-9.6513,-9.6604,-9.6626,-9.6646,-9.6718,-9.6744,-9.643,-9.643,-9.6431,0,-9.5325,-9.5478,-9.549,-9.5603,-9.5661,-9.5636,-9.5759,-9.5811,-9.5918,-9.5958,-9.5916,-9.6118,-9.6167,-9.6337,-9.6386,-9.6426,-9.646,-9.6405,-9.6622,-9.6643,-9.6662,-9.673,-9.6757,-9.6436,-9.6436,-9.6435,-9.6434,0,-9.5564,-9.5671,-9.5758,-9.5866,-9.5933,-9.605,-9.6079,-9.6146,-9.6144,-9.6172,-9.6314,-9.6373,-9.6474,-9.6514,-9.6512,-9.6684,-9.6659,-9.662,-9.6543,-9.6695,-9.676,-9.6786,-9.6445,-9.6443,-9.6441,-9.6439,0,0,-9.578,-9.5895,-9.5927,-9.5976,-9.6067,-9.6149,-9.6265,-9.6367,-9.6424,-9.6499,-9.6596,-9.6734,-9.6699,-9.6755,-9.6759,-9.6838,-9.6995,-9.6789,-9.6791,-9.6826,-9.7189,-9.7219,-9.7249,-9.6979,-9.6984,-9.6988,-9.7183,0,-9.5963,-9.617,-9.6186,-9.6372,-9.6471,-9.6451,-9.6552,-9.6618,-9.6648,-9.6735,-9.6767,-9.6865,-9.6811,-9.6846,-9.6923,-9.6959,-9.7068,-9.6945,-9.7069,-9.7073,-9.7051,-9.7283,-9.7314,-9.7494,-9.7209,-9.7213,-9.7216,0,-9.6205,-9.6291,-9.6487,-9.6567,-9.6609,-9.67,-9.6796,-9.688,-9.6955,-9.6971,-9.7036,-9.7029,-9.7147,-9.7068,-9.7231,-9.7148,-9.7199,-9.7225,-9.7232,-9.7244,-9.7154,-9.7301,-9.7552,-9.758,-9.7256,-9.7253,-9.725,0,-9.6344,-9.6508,-9.6648,-9.669,-9.6786,-9.6851,-9.6893,-9.6964,-9.7025,-9.7108,-9.7147,-9.7242,-9.7294,-9.7367,-9.7386,-9.7326,-9.755,-9.7471,-9.7566,-9.7566,-9.7613,-9.761,-9.7877,-9.7647,-9.7646,-9.7646,-9.7645,0,-9.6547,-9.6668,-9.6712,-9.6798,-9.6934,-9.695,-9.7083,-9.7122,-9.7185,-9.7277,-9.7264,-9.7351,-9.7371,-9.7461,-9.7476,-9.761,-9.7633,-9.7649,-9.7652,-9.7651,-9.7649,-9.7684,-9.7672,-9.7653,-9.7651,-9.765,-9.7649,0,-9.6725,-9.6759,-9.691,-9.699,-9.7013,-9.7109,-9.7177,-9.7259,-9.7288,-9.7405,-9.7434,-9.7479,-9.7585,-9.7612,-9.7737,-9.7747,-9.7906,-9.7896,-9.7881,-9.7881,-9.7975,-9.7966,-9.8274,-9.8315,-9.8057,-9.806,-9.8062,0,-9.6853,-9.6946,-9.7037,-9.71,-9.7146,-9.7246,-9.731,-9.733,-9.7396,-9.749,-9.7561,-9.7666,-9.7751,-9.7921,-9.7964,-9.806,-9.8053,-9.8154,-9.8067,-9.8064,-9.8055,-9.805,-9.8059,-9.817,-9.8173,-9.8175,-9.8177,0,-9.7076,-9.7089,-9.7182,-9.7283,-9.7359,-9.7438,-9.7514,-9.7565,-9.7596,-9.7671,-9.7781,-9.7847,-9.7977,-9.8081,-9.8179,-9.8221,-9.8205,-9.8205,-9.8232,-9.8232,-9.822,-9.8229,-9.7927,-9.8197,-9.8195,-9.8194,-9.8193,-9.8192,-9.7233,-9.7316,-9.7395,-9.7499,-9.7559,-9.7631,-9.7713,-9.7754,-9.7847,-9.7956,-9.7962,-9.8082,-9.8155,-9.8285,-9.8333,-9.8426,-9.8395,-9.8434,-9.8444,-9.8454,-9.8463,-9.8206,-9.8444,-9.8443,-9.8443,-9.8442,-9.8442,0,-9.7457,-9.7507,-9.7603,-9.7712,-9.7794,-9.7775,-9.7858,-9.7928,-9.8034,-9.8105,-9.8191,-9.8318,-9.8419,-9.8472,-9.8573,-9.8637,-9.8632,-9.8663,-9.8658,-9.8669,-9.8484,-9.8451,-9.8665,-9.8665,-9.8665,-9.8665,-9.8665,-9.8665,-9.7583,-9.7724,-9.7746,-9.7916,-9.7965,-9.8084,-9.8134,-9.82,-9.8257,-9.8401,-9.8487,-9.8521,-9.8585,-9.8691,-9.8783,-9.8796,-9.8834,-9.8869,-9.8878,-9.8704,-9.8681,-9.8659,-9.8628,-9.8877,-9.8877,-9.9055,-9.9056,-9.9057]}]]